User: anonymous   Login
Location: Livonia
(42.3680°N, 83.3530°W)
Time: 09:15:55
(UTC-05:00)
Language:

MOZ.5/SAFIR/RUBIN 5/SL-8 - Orbit

View from above orbital plane
View from above orbital plane
View from above satellite
View from above satellite

Ground track
Ground track

The orbit data is extracted from the following two-line orbital elements,

1 28898U 05043G   14356.15449005  .00001133  00000-0  24617-3 0    97
2 28898 097.8351 175.3653 0020651 161.3824 333.3381 14.59700835487341
Epoch (UTC): 22 December 2014 03:42:27
Eccentricity: 0.0020651
inclination: 97.8351°
perigee height: 679 km
apogee height: 709 km
right ascension of ascending node: 175.3653°
argument of perigee: 161.3824°
revolutions per day: 14.59700835
mean anomaly at epoch: 333.3381°
orbit number at epoch: 48734

The dashed part of the orbit path shows where the satellite is in the earth's shadow,  

DLR